Weather in Urlu-Aspak

Russia / Altai Republic     51°41′08″N   86°12′38″E
temp.,
°C
wind,
m/s
gust,
m/s
humid.,
%
clouds,
%
prec.,
mm/h
press.,
hPa
HPBL,
m
21 april, wed
wed2101:00−15sse219722 0.1 102913
04:00−15sse229715 0.0 102818
07:00−13s22915 0.0 102742
10:00−5n117067 0.0 1024717
13:00−2n226295 0.0 10221178
16:00−2n3260100 0.0 10211276
19:00−4nnw2270100 0.0 1024552
22:00−10ssw119665 0.0 102810
22 april, thu
thu2201:00−8s1189100 0.0 102934
04:00−10s219132 0.0 103015
07:00−9sse11795 0.0 103228
10:00−3nne22505 0.0 1032982
13:00−1n3358100 0.1 10321735
16:00−2nnw4583100 1.0 1034925
19:00−4nnw2587100 1.8 1037568
22:00−5nw1196100 2.0 1038196
23 april, fri
fri2301:00−7w1199100 2.6 103821
04:00−6nw1298100 0.1 1038223
07:00−5nw2296100 0.3 1038312
10:00−4nnw2389100 0.7 1038629
13:00−2nnw3385100 2.1 1038892
16:00−2nnw2488100 0.8 1037677
19:00−2nw1294100 1.4 1037370
22:00−3wnw1298100 1.6 1038169
24 april, sat
sat2401:00−4wnw1298100 2.8 1036122
04:00−4wsw1198100 1.0 103592
07:00−3sw1297100 2.3 1034153
10:00−1w1392100 1.8 1033581
13:00−1nw3489100 3.1 1032784
16:000nw2484100 0.8 1032939
19:00−1nw138496 1.2 1032670
22:00−4ssw1195100 0.1 103418
25 april, sun
sun2501:00−4s2297100 0.2 103455
04:00−4ssw239693 0.2 1033107
07:00−4ssw239477 0.3 103482
10:00−1wsw1290100 0.4 1033637
13:00+1nw1281100 1.1 1032885
16:00+1nnw238295 0.7 1032826
19:000n228878 0.9 1033287
22:00−5sse219821 0.0 103613